Flag for U.S.A. Weather past 2 weeks in Visalia, California, U.S.A.

Now
50 °F

Clear.


Feels Like: 48 °F
Forecast: 48 / 71 °F
Wind: 6 mph from North

Location: Visalia Municipal

Current Time: Apr 26, 2015 at 5:30:13 AM

Latest Report: Apr 26, 2015 at 4:55 AM


Visibility: 10 mi

Pressure: 30.02 "Hg

Humidity: 67%

Dew point: 39 °F

Location of VisaliaLocation

Historic Weather in Visalia — Graph

°F

Visalia temperature yesterday

Maximum temperature yesterday: 66 °F (at 4:55 PM)
Minimum temperature yesterday: 52 °F (at 6:15 AM)
Average temperature yesterday: 57 °F

Past Weeks' High & Low Weather Summary

 TemperatureHumidityPressure
High90 °F (Apr 19, 4:55 PM)82% (Apr 12, 7:35 AM)30.27 "Hg (Apr 12, 7:35 AM)
Low39 °F (Apr 15, 6:15 AM)15% (Apr 13, 5:15 PM)29.69 "Hg (Apr 20, 6:55 PM)
Average64 °F50%29.94 "Hg
* Reported Apr 11 4:15 AM — Apr 26 4:35 AM, Visalia, Weather by CustomWeather, © 2015

Note: Actual official high and low records may vary slightly from our data, if they occured in-between our weather recording intervals... More about our weather records

Advertising

Visalia weather history for previous 24 hours

 ConditionsComfort  
Time TempWeatherWind HumidityBarometerVisibility
4:35 AM
Sun, Apr 26
48 °FClear.7 mph71%30.03 "Hg10 mi
4:15 AM50 °FClear.8 mph67%30.02 "Hg10 mi
3:55 AM50 °FClear.7 mph67%30.02 "Hg10 mi
3:35 AM52 °FClear.7 mph62%30.02 "Hg10 mi
3:15 AM52 °FClear.7 mph62%30.01 "Hg10 mi
2:55 AM52 °FClear.8 mph62%30.01 "Hg10 mi
2:35 AM54 °FClear.10 mph58%30.01 "Hg10 mi
2:15 AM54 °FClear.9 mph63%30.00 "Hg10 mi
1:55 AM54 °FClear.9 mph63%30.00 "Hg10 mi
1:35 AM55 °FClear.13 mph63%30.01 "Hg10 mi
1:15 AM55 °FClear.12 mph67%30.01 "Hg10 mi
12:55 AM54 °FClear.9 mph72%30.01 "Hg10 mi
12:35 AM54 °FClear.8 mph72%30.01 "Hg10 mi
12:15 AM55 °FClear.8 mph67%30.01 "Hg10 mi
11:55 PM
Sat, Apr 25
55 °FClear.8 mph67%30.01 "Hg10 mi
11:35 PM55 °FClear.7 mph72%30.00 "Hg10 mi
11:15 PM55 °FClear.8 mph72%30.00 "Hg10 mi
10:55 PM57 °FClear.8 mph67%29.99 "Hg10 mi
10:35 PM57 °FClear.6 mph67%29.99 "Hg10 mi
10:15 PM57 °FClear.7 mph67%29.99 "Hg10 mi
9:55 PM59 °FClear.5 mph63%29.99 "Hg10 mi
9:35 PM59 °FClear.6 mph63%29.98 "Hg10 mi
9:15 PM59 °FClear.6 mph63%29.97 "Hg10 mi
8:15 PM61 °FSunny.7 mph63%29.94 "Hg10 mi
7:55 PM63 °FSunny.8 mph59%29.93 "Hg10 mi
7:35 PM63 °FSunny.10 mph59%29.93 "Hg10 mi
7:15 PM64 °FSunny.9 mph56%29.92 "Hg10 mi
6:55 PM64 °FSunny.6 mph56%29.92 "Hg10 mi
6:35 PM64 °FSunny.7 mph56%29.91 "Hg10 mi
6:15 PM66 °FSunny.8 mph52%29.91 "Hg10 mi
5:55 PM66 °FSunny.10 mph52%29.91 "Hg10 mi
5:35 PM66 °FSunny.8 mph52%29.91 "Hg10 mi
5:15 PM66 °FSunny.8 mph52%29.91 "Hg10 mi
4:55 PM66 °FSunny.14 mph56%29.91 "Hg10 mi
4:35 PM64 °FSunny.7 mph60%29.91 "Hg10 mi
4:15 PM64 °FSunny.7 mph64%29.91 "Hg10 mi
3:55 PM64 °FSunny.6 mph64%29.91 "Hg10 mi
3:35 PM63 °FSunny.7 mph59%29.92 "Hg10 mi
3:15 PM63 °FPassing clouds.6 mph64%29.93 "Hg10 mi
2:15 PM59 °FPartly sunny.5 mph68%29.94 "Hg10 mi
1:55 PM59 °FPartly sunny.6 mph72%29.94 "Hg10 mi
1:35 PM57 °FMostly cloudy.5 mph72%29.95 "Hg10 mi
1:15 PM57 °FMostly cloudy.No wind72%29.95 "Hg10 mi
12:55 PM57 °FOvercast.6 mph77%29.95 "Hg10 mi
12:35 PM55 °FMostly cloudy.12 mph77%29.95 "Hg10 mi
12:15 PM54 °FMostly cloudy.10 mph82%29.96 "Hg10 mi
11:55 AM54 °FMostly cloudy.9 mph82%29.96 "Hg10 mi
11:35 AM54 °FMostly cloudy.8 mph77%29.97 "Hg3 mi
11:15 AM54 °FCloudy.10 mph77%29.96 "Hg2 mi
10:55 AM54 °FOvercast.8 mph77%29.96 "Hg2 mi
10:35 AM54 °FOvercast.10 mph77%29.96 "Hg6 mi
10:15 AM54 °FOvercast.9 mph77%29.96 "Hg9 mi
9:55 AM52 °FMostly cloudy.7 mph82%29.96 "Hg9 mi
9:35 AM52 °FMore clouds than sun.7 mph82%29.96 "Hg4 mi
9:15 AM52 °FOvercast.5 mph77%29.97 "Hg8 mi
8:55 AM52 °FMostly cloudy.5 mph77%29.96 "Hg10 mi
8:35 AM52 °FMostly cloudy.12 mph77%29.94 "Hg10 mi
8:15 AM52 °FMostly cloudy.8 mph77%29.95 "Hg8 mi
7:55 AM52 °FMostly cloudy.8 mph77%29.96 "Hg10 mi
7:35 AM52 °FMostly cloudy.7 mph77%29.94 "Hg9 mi
7:15 AM52 °FMostly cloudy.12 mph77%29.94 "Hg10 mi
6:55 AM52 °FOvercast.10 mph77%29.95 "Hg8 mi
6:35 AM52 °FOvercast.6 mph77%29.97 "Hg7 mi
6:15 AM52 °FMostly cloudy.No wind72%29.98 "Hg7 mi
5:55 AM54 °FOvercast.No wind67%29.98 "Hg10 mi
5:35 AM54 °FMostly cloudy.5 mph67%29.97 "Hg10 mi
5:15 AM54 °FMostly cloudy.5 mph63%29.96 "Hg10 mi
Weather by CustomWeather, © 2015

See weather overviewHow to use our weather pages